DW7002 Weather Reports


Display with metric or nautical units.
time (UTC)temp
F
wind
direction
speed
MPH
gust
MPH
rain 1hr
in
rain 24hr
in
rain mn
in
humidity
%
barometer
mb
20260507194117 57 42 3.0 5.0 0.00 0.43 0.35 95 1010.9
20260507193131 57 57 2.0 3.0 0.00 0.43 0.35 95 1010.9
20260507192129 57 53 3.0 5.0 0.00 0.43 0.35 96 1010.7
20260507191123 57 64 3.0 5.0 0.00 0.43 0.35 96 1010.9
20260507190134 58 53 1.0 4.0 0.00 0.43 0.35 96 1011.3
20260507185124 57 53 2.0 5.0 0.00 0.44 0.35 95 1010.9
20260507184121 58 61 1.0 5.0 0.00 0.44 0.35 96 1010.9
20260507183134 58 62 2.0 5.0 0.00 0.44 0.35 95 1011.2
20260507182126 59 59 3.0 4.0 0.00 0.44 0.35 95 1011.0
20260507181124 59 36 2.0 6.0 0.00 0.44 0.35 95 1010.9
20260507180114 61 41 3.0 5.0 0.00 0.45 0.35 94 1011.0
20260507175126 62 36 3.0 5.0 0.00 0.45 0.35 95 1011.1
20260507174118 63 50 2.0 2.0 0.00 0.45 0.35 96 1010.9
20260507173115 63 50 1.0 2.0 0.00 0.45 0.35 96 1011.0
20260507172127 63 50 1.0 2.0 0.00 0.45 0.35 96 1010.8
20260507171120 63 50 0.0 1.0 0.00 0.45 0.35 96 1011.0
20260507170115 64 50 0.0 2.0 0.00 0.45 0.35 96 1011.2
20260507165125 65 50 1.0 5.0 0.01 0.45 0.35 95 1010.7
20260507164117 65 265 0.0 1.0 0.01 0.45 0.35 97 1010.3
20260507163130 65 265 0.0 0.0 0.01 0.45 0.35 97 1010.2
20260507162128 65 265 0.0 0.0 0.01 0.45 0.35 97 1010.4
20260507161121 65 257 0.0 0.0 0.02 0.45 0.35 97 1010.6
20260507160130 65 257 0.0 0.0 0.03 0.45 0.35 97 1010.7
20260507155141 64 257 0.0 0.0 0.02 0.44 0.34 97 1011.2
20260507154118 64 257 0.0 2.0 0.03 0.44 0.34 97 1011.4
20260507153131 64 257 0.0 4.0 0.04 0.44 0.34 97 1011.3
20260507152124 64 257 0.0 2.0 0.06 0.44 0.34 97 1011.7
20260507151119 65 257 1.0 2.0 0.05 0.43 0.33 97 1011.9
20260507150150 65 250 1.0 2.0 0.05 0.42 0.32 97 1011.6
20260507145120 65 250 0.0 0.0 0.05 0.42 0.32 97 1011.1
20260507144134 65 250 0.0 0.0 0.05 0.41 0.31 97 1011.1
20260507143131 65 250 0.0 2.0 0.06 0.40 0.30 97 1011.4
20260507142124 65 249 0.0 1.0 0.04 0.38 0.28 97 1011.4
20260507141117 65 168 1.0 2.0 0.06 0.38 0.28 97 1011.4
20260507140127 65 164 0.0 0.0 0.06 0.37 0.27 97 1010.7
20260507135122 64 164 0.0 2.0 0.12 0.37 0.27 97 1010.5
20260507134135 64 253 0.0 0.0 0.13 0.36 0.26 97 1010.9
20260507133126 64 253 0.0 0.0 0.12 0.34 0.24 97 1011.2
20260507132122 64 253 0.0 0.0 0.13 0.34 0.24 97 1011.6
20260507131156 64 253 0.0 0.0 0.12 0.32 0.22 97 1011.7
20260507130128 65 253 0.0 4.0 0.14 0.30 0.20 97 1012.2
20260507125119 65 251 1.0 4.0 0.09 0.25 0.15 97 1012.5
20260507124115 65 251 1.0 2.0 0.06 0.22 0.12 97 1012.2
20260507123128 65 250 1.0 2.0 0.06 0.22 0.12 97 1011.9
20260507122118 64 250 0.0 1.0 0.05 0.21 0.11 97 1011.8
20260507121130 64 250 0.0 1.0 0.04 0.20 0.10 97 1011.9
20260507120128 64 250 0.0 1.0 0.00 0.16 0.06 97 1011.9
20260507115118 64 250 1.0 2.0 0.00 0.16 0.06 97 1011.8
20260507114132 64 250 0.0 1.0 0.00 0.16 0.06 97 1011.5
20260507113128 64 242 1.0 1.0 0.00 0.16 0.06 97 1011.6
20260507112122 64 242 0.0 0.0 0.00 0.16 0.06 97 1011.3
20260507111115 64 242 0.0 0.0 0.01 0.16 0.06 97 1011.2
20260507110127 64 242 0.0 1.0 0.01 0.16 0.06 97 1011.7
20260507105123 64 240 0.0 0.0 0.01 0.16 0.06 97 1011.5
20260507104134 64 240 0.0 2.0 0.01 0.16 0.06 97 1011.6
20260507103127 64 240 0.0 2.0 0.01 0.16 0.06 97 1011.6
20260507102125 64 240 0.0 2.0 0.00 0.15 0.05 97 1011.5
20260507101118 64 240 0.0 2.0 0.00 0.15 0.05 97 1011.4
20260507100129 64 240 0.0 1.0 0.00 0.15 0.05 96 1011.2
20260507095118 64 240 1.0 1.0 0.00 0.15 0.05 97 1011.7
20260507094116 64 240 0.0 1.0 0.00 0.15 0.05 96 1011.6
20260507093129 64 240 0.0 0.0 0.00 0.15 0.05 96 1011.3
20260507092121 64 240 0.0 2.0 0.00 0.15 0.05 96 1011.7
20260507091116 64 186 0.0 4.0 0.01 0.15 0.05 96 1011.3
20260507090128 64 223 1.0 2.0 0.01 0.15 0.05 96 1011.2
20260507085121 64 223 0.0 1.0 0.01 0.15 0.05 96 1011.3
20260507084133 64 223 0.0 0.0 0.01 0.15 0.05 96 1011.2
20260507083147 64 223 0.0 1.0 0.01 0.15 0.05 96 1011.4
20260507082119 64 223 0.0 2.0 0.01 0.15 0.05 96 1011.4
20260507081133 64 248 0.0 2.0 0.00 0.14 0.04 96 1011.4
20260507080125 64 248 0.0 2.0 0.00 0.14 0.04 96 1011.7
20260507075120 64 236 1.0 4.0 0.00 0.14 0.04 96 1012.0
20260507074154 64 246 1.0 2.0 0.00 0.14 0.04 96 1012.2
20260507073126 64 246 0.0 1.0 0.00 0.14 0.04 96 1012.1
20260507072119 64 246 0.0 2.0 0.00 0.14 0.04 96 1011.7
20260507071118 64 223 0.0 2.0 0.00 0.14 0.04 96 1012.0
20260507070129 64 174 0.0 2.0 0.00 0.14 0.04 96 1012.2
20260507065140 64 175 0.0 1.0 0.00 0.14 0.04 96 1012.4
20260507064115 64 175 1.0 2.0 0.00 0.14 0.04 96 1012.6
20260507063147 64 178 0.0 2.0 0.00 0.14 0.04 96 1012.7
20260507062119 64 178 1.0 3.0 0.01 0.14 0.04 96 1012.8
20260507061152 64 263 0.0 1.0 0.01 0.14 0.04 95 1013.5
20260507060123 64 263 0.0 1.0 0.01 0.14 0.04 95 1013.7
20260507055117 64 263 0.0 4.0 0.01 0.14 0.04 95 1013.7
20260507054151 64 252 1.0 2.0 0.01 0.14 0.04 95 1013.7
20260507053124 64 281 1.0 5.0 0.01 0.14 0.04 95 1014.0
20260507052121 64 284 1.0 5.0 0.00 0.13 0.03 95 1014.0
20260507051133 64 254 1.0 2.0 0.01 0.13 0.03 95 1013.5
20260507050146 64 252 2.0 4.0 0.03 0.13 0.03 95 1013.5
20260507045156 64 267 0.0 2.0 0.04 0.13 0.03 95 1013.6
20260507044128 65 309 1.0 2.0 0.06 0.13 0.03 95 1013.9
20260507043125 65 312 0.0 2.0 0.09 0.13 0.03 94 1013.8
20260507042119 65 311 2.0 5.0 0.10 0.13 0.03 94 1013.6
20260507041132 65 104 2.0 5.0 0.08 0.11 0.01 94 1013.1
20260507040129 65 190 2.0 5.0 0.07 0.10 0.10 93 1013.4
20260507035118 66 149 3.0 5.0 0.07 0.09 0.09 93 1013.4
20260507034131 66 269 2.0 5.0 0.04 0.06 0.07 93 1014.8
20260507033125 66 281 2.0 7.0 0.02 0.04 0.04 91 1015.1
20260507032122 67 269 4.0 8.0 0.01 0.03 0.03 90 1015.1
20260507031115 67 258 4.0 7.0 0.01 0.03 0.03 90 1014.7
20260507030148 68 250 2.0 5.0 0.01 0.03 0.03 90 1014.4
20260507025124 68 265 2.0 5.0 0.00 0.02 0.02 90 1014.0
20260507024117 68 239 2.0 6.0 0.00 0.02 0.02 90 1014.1
20260507023150 68 262 4.0 6.0 0.00 0.02 0.02 92 1014.4
20260507022122 67 241 0.0 0.0 0.00 0.02 0.02 93 1013.7
20260507021119 67 240 0.0 0.0 0.00 0.02 0.02 93 1013.6
20260507020132 67 240 0.0 0.0 0.00 0.02 0.02 92 1013.6
20260507015122 67 240 0.0 0.0 0.00 0.02 0.02 92 1013.2
20260507014135 67 240 0.0 0.0 0.00 0.02 0.02 91 1013.2
20260507013133 68 240 0.0 0.0 0.00 0.02 0.02 91 1013.0
20260507012125 68 240 0.0 0.0 0.00 0.02 0.02 91 1013.3
20260507011119 68 240 0.0 0.0 0.00 0.02 0.02 90 1013.3
20260507010114 68 240 0.0 0.0 0.00 0.02 0.02 90 1013.3
20260507005145 68 240 0.0 0.0 0.00 0.02 0.02 89 1013.4
20260507004117 69 240 0.0 2.0 0.00 0.02 0.02 88 1013.1
20260507003129 69 240 0.0 0.0 0.00 0.02 0.02 87 1013.5
20260507002146 69 240 0.0 0.0 0.00 0.02 0.02 85 1013.2
20260507001137 70 240 0.0 0.0 0.00 0.02 0.02 85 1013.2
20260507000127 70 240 0.0 0.0 0.00 0.02 0.02 84 1013.2
20260506235117 70 240 0.0 0.0 0.00 0.02 0.02 83 1013.1
20260506234134 71 240 0.0 0.0 0.00 0.02 0.02 83 1013.2
20260506233147 71 240 0.0 0.0 0.00 0.02 0.02 82 1013.0
20260506232118 71 240 1.0 2.0 0.00 0.02 0.02 81 1013.0
20260506231130 71 250 0.0 2.0 0.00 0.02 0.02 81 1013.3
20260506230127 71 251 0.0 2.0 0.00 0.02 0.02 80 1013.5
20260506225117 72 251 1.0 4.0 0.00 0.02 0.02 80 1013.4
20260506224129 72 282 1.0 3.0 0.00 0.02 0.02 80 1013.4
20260506223141 72 280 2.0 4.0 0.00 0.02 0.02 79 1013.5
20260506222118 72 267 3.0 6.0 0.00 0.02 0.02 78 1013.7
20260506221131 72 266 3.0 6.0 0.00 0.02 0.02 78 1013.5
20260506220122 72 284 3.0 7.0 0.00 0.02 0.02 77 1013.4
20260506215115 72 319 2.0 6.0 0.00 0.02 0.02 77 1013.1
20260506214127 72 244 3.0 7.0 0.00 0.02 0.02 77 1013.1
20260506213140 72 281 2.0 5.0 0.00 0.02 0.02 76 1012.9
20260506212151 72 307 3.0 11.0 0.00 0.02 0.02 76 1012.9
20260506211123 71 276 3.0 7.0 0.00 0.02 0.02 78 1013.2
20260506210118 71 283 3.0 6.0 0.00 0.02 0.02 78 1013.4
20260506205130 71 275 4.0 7.0 0.00 0.02 0.02 79 1013.5
20260506204122 70 280 3.0 9.0 0.00 0.02 0.02 80 1013.6
20260506203120 70 284 3.0 7.0 0.00 0.02 0.02 82 1013.5
20260506202132 69 290 4.0 8.0 0.00 0.02 0.02 81 1013.7
20260506201123 69 278 3.0 8.0 0.00 0.02 0.02 84 1013.4
20260506200115 68 280 2.0 7.0 0.00 0.02 0.02 85 1013.4
20260506195130 67 284 1.0 7.0 0.00 0.02 0.02 87 1013.5